Location: Chapilli�re
(46.3796°N, 3.2127°E)
Time: 17:09:39
(UTC+00:00)

Daily predictions for brighter satellites

Satellite Brightness Start Highest point End
(mag) Time Altitude Azimuth Time Altitude Azimuth Time Altitude Azimuth
Cosmos 1943 4.4 17:09:24 10° N 17:13:36 21° NE 17:17:48 10° E
Cosmos 2251 Rocket 3.7 17:11:05 10° NNW 17:16:19 54° ENE 17:21:32 10° SE
YAOGAN 1 3.7 17:13:04 10° ESE 17:16:24 22° ENE 17:19:45 10° NNE
Starlink T 4.3 17:14:21 10° NW 17:17:10 26° N 17:19:58 10° ENE
Cosmos 1727 Rocket 4.5 17:11:38 10° N 17:17:19 37° ENE 17:22:57 10° SE
Starlink N 4.3 17:16:29 10° NW 17:19:18 26° N 17:22:08 10° ENE
SL-8 Rocket 4.1 17:13:13 10° S 17:19:22 58° E 17:25:30 10° NNE
Starlink AS 4.2 17:17:54 10° NW 17:20:22 24° N 17:22:50 10° ENE
Starlink BA 4.2 17:18:07 10° NW 17:20:35 24° N 17:23:03 10° ENE
Starlink AU 4.2 17:18:21 10° NW 17:20:49 24° N 17:23:17 10° ENE
Starlink AT 4.2 17:18:35 10° NW 17:21:03 24° N 17:23:32 10° ENE
Starlink BB 4.2 17:18:47 10° NW 17:21:16 24° N 17:23:45 10° ENE
Starlink BC 4.2 17:19:02 10° NW 17:21:30 24° N 17:23:59 10° ENE
Starlink Q 4.3 17:18:50 10° NW 17:21:40 27° N 17:24:31 10° ENE
Starlink BK 4.2 17:19:14 10° NW 17:21:43 24° N 17:24:12 10° ENE
USA 102 4.1 17:16:32 10° SSE 17:21:52 73° ENE 17:25:24 10° NNW
Starlink AY 4.2 17:19:28 10° NW 17:21:57 24° N 17:24:26 10° ENE
Starlink AW 4.2 17:19:42 10° NW 17:22:11 24° N 17:24:40 10° ENE
Starlink BJ 4.1 17:19:54 10° NW 17:22:23 24° N 17:24:52 10° ENE
Starlink AV 4.1 17:20:09 10° NW 17:22:38 24° N 17:25:07 10° ENE
Starlink BD 4.1 17:20:23 10° NW 17:22:52 24° N 17:25:21 10° ENE
Starlink BE 4.1 17:20:33 10° NW 17:23:04 24° N 17:25:35 10° ENE
Starlink BM 4.1 17:20:49 10° NW 17:23:19 24° N 17:25:46 10° ENE
Starlink AX 4.1 17:21:03 10° NW 17:23:32 24° N 17:25:59 10° ENE
Cosmos 1328 4.2 17:19:54 10° SSE 17:23:42 44° E 17:27:32 10° NNE
Starlink BH 4.1 17:21:16 10° NW 17:23:46 24° N 17:26:12 10° ENE
Starlink P 4.2 17:21:02 10° NW 17:23:53 27° N 17:26:43 10° ENE
Envisat 3.0 17:18:51 10° SSE 17:23:54 72° ENE 17:28:59 10° N
Starlink AZ 4.1 17:21:29 10° NW 17:23:59 24° N 17:26:25 10° ENE
Starlink BG 4.1 17:21:43 10° NW 17:24:13 24° N 17:26:38 10° ENE
Starlink BF 4.1 17:21:57 10° NW 17:24:26 24° N 17:26:51 10° ENE
Starlink BL 4.1 17:22:07 10° NW 17:24:38 25° N 17:27:05 10° ENE
Starlink AH 4.1 17:22:24 10° NW 17:24:54 24° N 17:27:18 11° ENE
Starlink AC 4.1 17:22:38 10° NW 17:25:08 24° N 17:27:30 11° ENE
Starlink X 4.1 17:22:51 10° NW 17:25:21 24° N 17:27:43 11° ENE
Starlink AE 4.1 17:23:01 10° NW 17:25:34 25° N 17:27:59 11° ENE
Starlink Z 4.1 17:23:18 10° NW 17:25:49 25° N 17:28:10 11° ENE
Starlink AK 4.1 17:23:31 10° NW 17:26:01 25° N 17:28:22 11° ENE
Starlink U 4.2 17:23:15 10° NW 17:26:06 27° N 17:28:50 11° ENE
Starlink AQ 4.1 17:23:35 10° NW 17:26:06 25° N 17:28:27 11° ENE
Starlink AL 4.1 17:23:45 10° NW 17:26:15 25° N 17:28:35 11° ENE
Meteor 1-21 Rocket 4.3 17:20:43 10° S 17:26:22 89° WNW 17:32:10 10° N
Starlink AD 4.1 17:23:59 10° NW 17:26:29 25° N 17:28:48 11° ENE
USA 267 3.3 17:20:16 10° NE 17:26:50 87° SE 17:33:24 10° SW
Starlink Y 4.1 17:24:26 10° NW 17:26:56 25° N 17:29:15 11° ENE
Starlink AG 4.1 17:24:39 10° NW 17:27:09 25° N 17:29:27 11° ENE
Starlink W 4.1 17:24:50 10° NW 17:27:22 25° N 17:29:42 11° ENE
Starlink AJ 4.1 17:25:06 10° NW 17:27:36 25° N 17:29:53 11° ENE
Starlink AM 4.1 17:25:32 10° NW 17:28:03 25° N 17:30:18 12° ENE
FengYun 1-2 T 4.4 17:22:41 10° SE 17:28:11 56° ENE 17:33:43 10° N
USA 32 4.1 17:22:58 10° S 17:28:12 89° W 17:33:28 10° N
Starlink AP 4.1 17:25:46 10° NW 17:28:17 25° NNE 17:30:32 12° ENE
Starlink B 4.2 17:25:28 10° NW 17:28:21 28° N 17:30:58 11° ENE
Starlink AA 4.1 17:26:00 10° NW 17:28:31 25° NNE 17:30:45 12° ENE
Starlink AF 4.1 17:26:14 10° NW 17:28:45 25° NNE 17:30:58 12° ENE
Starlink AB 4.1 17:26:27 10° NW 17:28:58 25° NNE 17:31:11 12° ENE
Starlink AN 4.1 17:26:40 10° NW 17:29:11 25° NNE 17:31:24 12° ENE
ISS -3.0 17:27:20 10° W 17:30:36 45° NNW 17:33:40 11° ENE
Cosmos 44 3.4 17:26:55 10° SW 17:31:27 66° NW 17:35:51 10° NNE
CZ-4 R/B 1.9 17:29:30 10° SE 17:33:19 38° ENE 17:37:12 10° N
ATLAS 5 CENTAUR R/B 4.1 17:38:40 10° NNW 17:40:40 12° N 17:42:45 10° NNE
ATLAS CENTAUR R/B 1.2 17:37:14 10° NW 17:41:17 87° SW 17:45:01 10° SE
Cosmos 407 Rocket 4.4 17:38:54 10° N 17:43:26 28° NE 17:47:54 10° ESE
CSL-04 Rocket 4.0 17:39:06 10° SE 17:44:18 44° ENE 17:49:33 10° N
Starlink D 4.0 17:41:54 10° NW 17:44:52 31° NNE 17:46:48 17° ENE
Cosmos 1703 3.2 17:41:26 10° S 17:45:23 76° E 17:49:23 10° NNE
Cosmos 1953 Rocket 3.7 17:41:54 10° S 17:46:22 84° W 17:50:53 10° N
Cosmos 2341 Rocket 4.5 17:40:10 10° SSW 17:46:29 68° W 17:52:49 10° N
Cosmos 1455 2.5 17:42:59 10° NNW 17:46:47 69° W 17:50:30 10° S
Starlink S 4.0 17:44:13 10° NW 17:47:12 31° NNE 17:49:02 18° ENE
Starlink AR 3.6 17:46:54 10° NW 17:49:20 29° NNE 17:50:26 21° ENE
Starlink C 4.0 17:46:29 10° NW 17:49:29 32° NNE 17:51:13 19° ENE
Cosmos 1842 Rocket 3.9 17:46:14 10° N 17:50:33 45° ENE 17:54:51 10° SSE
COSMO-SKYMED 1 2.6 17:46:14 10° NNE 17:50:33 62° E 17:54:51 10° S
Starlink E 4.0 17:48:48 10° NW 17:51:49 32° NNE 17:53:28 20° ENE
Starlink J 3.9 17:51:08 10° NW 17:54:10 33° NNE 17:55:42 21° ENE
Cosmos 864 Rocket 4.4 17:48:49 10° S 17:54:56 81° E 18:01:07 10° N
Starlink V 3.9 17:53:26 10° NW 17:56:29 34° NNE 17:57:56 23° ENE
Shenzhou-11 Module 3.1 17:55:48 10° WSW 17:58:17 32° S 17:59:59 16° SE
Starlink H 3.9 17:55:47 10° NW 17:58:51 34° NNE 18:00:11 24° ENE
Meteor 2-10 Rocket 4.1 17:54:13 10° NNW 17:59:22 61° W 18:04:20 10° S
Starlink F 3.8 17:58:07 10° NW 18:01:12 35° NNE 18:02:27 25° ENE
USA 234 3.4 17:55:12 10° SE 18:01:45 81° SW 18:08:20 10° NW
Starlink G 3.8 18:00:28 10° NW 18:03:33 36° NNE 18:04:42 27° ENE
Cosmos 1356 Rocket 3.3 17:59:36 10° N 18:03:42 87° E 18:07:50 10° S
Starlink L 3.8 18:02:47 10° NW 18:05:54 37° NNE 18:06:57 28° ENE
Cosmos 2218 Rocket 4.2 18:00:38 10° SSW 18:06:59 77° W 18:13:26 10° N
USA 116 3.5 18:05:44 22° NE 18:07:19 41° E 18:10:19 10° S
Ariane Rocket 3.7 18:03:04 10° SE 18:07:29 31° ENE 18:11:56 10° N
ADEOS Rocket 3.8 18:01:22 10° NNE 18:07:46 38° E 18:14:38 10° SSE
Starlink A 3.7 18:05:09 10° NW 18:08:16 38° NNE 18:09:13 30° ENE
Starlink R 3.7 18:07:30 10° NW 18:10:38 39° NNE 18:11:29 32° ENE
CZ-2D R/B 3.3 18:07:20 10° SSE 18:11:05 54° ENE 18:14:53 10° N
Starlink K 3.6 18:09:50 10° NW 18:12:59 40° NNE 18:13:44 34° NE
SL-08 R/B 4.5 18:06:44 10° S 18:13:03 81° E 18:19:32 10° N
Starlink M 3.6 18:12:10 10° NW 18:15:20 41° NNE 18:15:59 36° NE
Cosmos 1869 3.8 18:12:25 10° N 18:16:06 35° ENE 18:18:28 18° SE
SL-16 R/B 3.6 18:11:10 10° NW 18:16:28 41° WSW 18:21:42 10° S
Cosmos 614 Rocket 4.1 18:11:26 10° NNW 18:16:33 53° ENE 18:21:38 10° SE
Cosmos 2221 2.4 18:12:38 10° N 18:16:54 63° E 18:21:10 10° SSE
SL-8 R/B 3.8 18:13:19 10° W 18:18:08 69° N 18:20:30 29° ENE
YAOGAN 6 4.3 18:15:33 10° SSW 18:18:57 37° W 18:22:21 10° NNW
Cosmos 2123 Rocket 4.4 18:14:44 10° N 18:20:34 38° ENE 18:26:20 10° SE
Cosmos 44 Rocket 3.1 18:17:37 10° SSW 18:22:24 74° ESE 18:25:12 25° NE
Cosmos 1076 Rocket 3.9 18:18:43 10° SSE 18:22:42 38° E 18:24:11 29° NE
USA 238 DEB 4.0 18:16:40 10° S 18:22:52 43° ESE 18:26:24 25° ENE
Cosmos 2227 4.3 18:17:22 10° S 18:22:57 57° ESE 18:27:08 18° NE
USA 238 4.0 18:16:48 10° S 18:22:59 43° ESE 18:26:28 25° ENE
Cosmos 1934 Rocket 4.4 18:18:10 10° SSE 18:23:35 35° E 18:29:01 10° NNE
Cosmos 1939 Rocket 2.7 18:20:19 10° SSE 18:24:15 78° ENE 18:28:17 10° N
Cosmos 1000 Rocket 4.4 18:19:16 10° N 18:25:28 64° E 18:31:40 10° SSE
BREEZE-M DEB (TANK) 2.3 18:23:47 10° W 18:26:01 66° NNW 18:26:22 55° NE
ARGOS 4.1 18:27:20 26° NE 18:27:20 26° NE 18:31:17 10° N
Cosmos 2056 Rocket 4.0 18:23:19 10° S 18:28:10 38° ESE 18:29:44 31° ENE
Cosmos 2297 Rocket 4.1 18:24:26 10° WSW 18:29:07 26° NW 18:33:50 10° N
Cosmos 1603 3.6 18:24:14 10° NNW 18:29:57 79° ENE 18:35:34 10° SSE
CZ-2C R/B 4.2 18:32:12 27° NE 18:32:12 27° NE 18:36:21 10° N
Cosmos 2263 Rocket 2.3 18:27:40 10° S 18:33:03 53° ESE 18:35:48 28° NE
Cosmos 2227 Rocket 4.2 18:38:23 10° W 18:42:51 23° NW 18:47:20 10° N
Cosmos 2058 3.1 18:40:30 10° S 18:43:59 50° SE 18:43:59 50° SE
Cosmos 1140 Rocket 3.4 18:40:25 10° NNW 18:45:38 60° ENE 18:47:38 36° SE
ATLAS 5 CENTAUR R/B 3.8 18:42:39 10° NW 18:47:31 63° NE 19:07:29 10° SE
YAOGAN 1 3.9 18:48:11 10° S 18:52:16 41° W 18:56:23 10° NNW
Starlink T 4.0 18:50:34 10° WNW 18:52:51 41° NW 18:52:51 41° NW
NOSS 3-3 (A) 4.4 18:47:10 10° NW 18:54:37 74° NE 18:59:19 28° SE
NOSS 3-3 (C) 4.4 18:47:16 10° NW 18:54:42 74° NE 18:59:20 29° SE
Starlink N 4.1 18:52:42 10° WNW 18:54:54 39° NW 18:54:54 39° NW
Starlink Q 4.3 18:55:03 10° WNW 18:57:10 37° NW 18:57:10 37° NW
Cosmos 1943 3.2 18:52:41 10° NNW 18:58:22 82° WSW 19:03:00 16° SSE
Starlink P 4.4 18:57:15 10° WNW 18:59:18 35° NW 18:59:18 35° NW
H-2A R/B 2.4 19:04:42 45° NNE 19:04:42 45° NNE 19:08:37 10° N
ATLAS 3B R/B 4.0 19:01:52 10° S 19:04:32 21° SSE 19:04:32 21° SSE
ISS -1.7 19:04:47 10° WNW 19:06:38 24° NW 19:06:38 24° NW
CZ-4 R/B 4.0 19:05:19 10° SW 19:08:28 21° W 19:11:41 10° NW
USA 267 4.0 19:06:36 28° NNE 19:09:32 44° NNW 19:15:39 10° W
Cosmos 1954 Rocket 3.9 19:08:00 10° NNW 19:13:02 70° NE 19:13:02 70° NE
NOSS 3-2 (C) 3.6 19:09:59 10° SSW 19:14:41 49° SSE 19:14:41 49° SSE
SJ-11-01 4.4 19:19:15 58° SSW 19:20:04 73° WSW 19:24:48 10° NNW
Timation 1 Rocket 4.4 19:16:14 10° SW 19:22:12 75° WNW 19:24:16 43° NNE
CENTAUR R/B 3.2 19:17:04 10° S 19:20:42 36° SSE 19:20:42 36° SSE
Cosmos 407 Rocket 4.5 19:20:38 10° NNW 19:25:39 46° WSW 19:30:26 11° S
Cosmos 1371 Rocket 4.4 19:22:03 10° SW 19:27:10 60° WNW 19:28:28 46° NNW
ATLAS 5 CENTAUR R/B 4.1 19:24:15 10° NNW 19:26:17 15° N 19:26:17 15° N
NOSS 3-2 (A) 3.3 19:26:20 10° SW 19:32:07 83° NW 19:32:40 74° NNE
Cosmos 676 Rocket 4.4 19:35:03 10° NNW 19:39:53 63° WNW 19:39:53 63° WNW
Ariane Rocket 4.3 19:41:38 10° SSW 19:46:20 38° W 19:51:04 10° NNW
Cosmos 1605 Rocket 4.2 19:43:57 10° SSW 19:56:06 13° N 19:56:45 10° N
ADEOS Rocket 4.2 19:46:49 10° N 19:53:20 49° WNW 20:00:24 10° SW
USA 238 DEB 4.3 20:07:14 10° WSW 20:13:45 50° NW 20:13:54 50° NW
USA 238 4.3 20:07:21 10° WSW 20:13:51 50° NW 20:13:58 50° NW
Cosmos 2263 Rocket 3.8 20:12:28 10° WSW 20:17:16 29° NW 20:17:34 29° NW
